SCP
-0 0 -0 -0 -0 0 -0 0 0 0 0 0 -0 -0 -0 -0 -0 -0 -0 -0 0 -0 -0 -0 -0 -0 -0 -0 -0 -0 -0 -0 -0 -0 -0 -0 -0 -0 -0 -0 -0 0 0
-0 -0 -0 -0 -0 -0 -0 -0 -0 -0 0 -0 -0 -0 -0 -0 -0 -0 -0 -0 -0 -0 -0 -0 -0 -0 -0 -0 -0 -0 0 0 0 0 0 0 0 0 0 0 0 0 0
-0 -0 -0 -0 -0 -0 -0 -0 -0 -0 -0 -0 -0 -0 -0 -0 -0 -0 -0 -0 -0 -0 -0 -0 -0 -0 -0 -0 -0 0 -0 0 0 0 0 0 0 0 0 0 0 0 0
-0 -0 -0 -0 -0 -0 -0 -0 -0 -0 -0 -0 -0 -0 -0 -0 -0 -0 -0 -0 -0 -0 -0 -0 -0 -0 -0 -0 -0 0 0 0 0 0 0 0 0 0 0 0 0 0 0
-0 -0 -0 -0 -0 -0 -0 -0 -0 -0 -0 -0 -0 -0 -0 -0 -0 -0 -0 -0 -0 -0 -0 -0 -0 -0 -0 -0 0 0 0 0 0 0 0 0 0 0 0 0 0 0 0
-0 0 -0 -0 -0 -0 -0 -0 -0 -0 -0 -0 -0 -0 -0 -0 0 -0 -0 -0 -0 -0 -0 -0 -0 -0 -0 0 0 0 0 0 0 0 0 0 0 0 0 0 0 0 0
-0 -0 -0 -0 -0 -0 -0 -0 -0 -0 -0 -0 -0 -0 0 0 0 0 -0 -0 -0 -0 -0 -0 -0 -0 0 0 0 0 0 0 0 0 0 0 0 0 0 0 0 0 0
-0 -0 -0 -0 -0 -0 -0 -0 -0 -0 0 0 0 0 0 0 0 0 0 0 -0 -0 -0 0 0 0 0 0 0 0 0 0 0 0 0 0 0 0 0 0 0 0 0
-0 -0 0 0 0 0 0 0 -0 -0 -0 -0 -0 0 -0 0 0 0 0 0 0 -0 -0 0 0 0 0 0 0 0 0 0 0 0 0 0 0 0 0 0 0 0 0
-0 -0 -0 0 -0 -0 -0 -0 -0 -0 -0 -0 0 0 0 0 0 0 0 0 0 -0 0 0 0 0 0 0 0 0 0 0 0 0 0 0 0 0 0 0 0 0 0
-0 -0 -0 0 0 -0 -0 -0 -0 -0 -0 -0 -0 -0 0 -0 0 0 0 0 -0 0 0 0 0 0 0 0 0 0 0 0 0 0 0 0 0 0 0 0 0 0 0
0 0 -0 0 0 -0 0 0 0 0 0 0 0 0 0 0 0 0 0 0 0 0 0 0 0 0 0 0 0 0 0 0 0 0 0 0 0 0 0 0 0 0 0
0 0 -0 -0 -0 -0 0 0 0 0 0 0 0 0 0 0 0 0 0 0 0 0 0 0 0 0 0 0 0 0 0 0 0 0 0 0 0 0 0 0 0 0 0
-0 -0 -0 -0 -0 0 0 0 0 0 0 0 0 0 0 0 0 0 0 0 0 0 0 0 0 0 0 0 0 0 0 0 0 0 0 0 0 0 0 0 0 0 0
0 0 -0 0 0 0 0 0 0 0 0 0 0 0 0 0 0 0 0 0 0 0 0 0 0 0 0 0 0 0 0 0 0 0 0 0 0 0 0 0 0 0 0
0 0 0 0 0 0 0 0 0 0 0 0 0 0 0 0 0 0 0 0 0 0 0 0 0 0 0 0 0 0 0 0 0 0 0 0 0 0 0 0 0 0 0
0 0 0 0 0 0 0 0 0 0 0 0 0 0 0 0 0 0 0 0 0 0 0 0 0 0 0 0 0 0 0 0 0 0 0 0 0 0 0 0 0 0 0
0 0 0 0 0 0 0 0 0 0 0 0 0 0 0 0 0 0 0 0 0 0 0 0 0 0 0 0 0 0 0 0 0 0 0 0 0 0 0 0 0 0 0
0 0 0 0 0 0 0 0 0 0 0 0 0 0 0 0 0 0 0 0 0 0 0 0 0 0 0 0 0 0 0 0 0 0 0 0 0 0 0 0 0 0 0
0 0 0 0 0 0 0 0 0 0 0 0 0 0 0 0 0 0 0 0 0 0 0 0 0 0 0 0 0 0 0 0 0 0 0 0 0 0 0 0 0 0 0
0 0 0 0 0 0 0 0 0 0 0 0 0 0 0 0 0 0 0 0 0 0 0 0 0 0 0 0 0 0 0 0 0 0 0 0 0 0 0 0 0 0 0
0 0 0 0 0 0 0 0 0 0 0 0 0 0 0 0 0 0 0 0 0 0 0 0 0 0 0 0 0 0 0 0 0 0 0 0 0 0 0 0 0 0 0
0 0 0 0 0 0 0 0 0 0 0 0 0 0 0 0 0 0 0 0 0 0 0 0 0 0 0 0 0 0 0 0 0 0 0 0 0 0 0 0 0 0 0
0 0 0 0 0 0 0 0 0 0 0 0 0 0 0 0 0 0 0 0 0 0 0 0 0 0 0 0 0 0 0 0 0 0 0 0 0 0 0 0 0 0 0
0 0 0 0 0 0 0 0 0 0 0 0 0 0 0 0 0 0 0 0 0 0 0 0 0 0 0 0 0 0 0 0 0 0 0 0 0 0 0 0 0 0 0
0 0 0 0 0 0 0 0 0 0 0 0 0 0 0 0 0 0 0 0 0 0 0 0 0 0 0 0 0 0 0 0 0 0 0 0 0 0 0 0 0 0 0
Wind_Speed_500mb
27 25 28 32 33 32 30 32 32 32 31 32 26 25 27 31 32 24 17 12 10 12 14 17 19 21 22 25 25 26 26 26 27 33 30 20 18 14 12 14 5 9 12
31 29 31 35 36 31 29 27 30 31 28 24 22 19 20 20 20 18 13 9 12 12 11 17 17 18 22 24 24 25 26 26 27 26 26 25 13 9 9 10 7 8 9
28 31 33 34 36 33 29 23 21 22 23 21 19 17 16 15 12 8 3 3 8 17 10 12 15 19 20 21 22 22 21 23 24 20 18 19 18 14 13 10 7 8 9
28 29 33 34 35 32 27 19 20 19 18 15 12 11 10 10 9 7 6 5 5 1 10 12 13 15 16 17 19 18 17 15 14 14 13 14 15 16 17 15 11 12 13
30 26 29 32 34 31 27 22 18 16 15 11 6 5 5 5 4 5 4 4 5 4 3 8 7 8 11 13 14 13 11 9 9 10 8 10 13 16 15 14 13 13 13
32 26 24 28 29 29 26 21 18 15 14 9 8 8 9 8 6 4 3 4 3 3 2 3 8 8 9 9 9 8 6 6 7 7 7 11 12 12 12 12 12 11 11
27 27 23 24 26 25 23 19 15 14 10 6 7 8 9 8 6 5 5 4 2 2 2 6 10 11 10 8 8 8 8 7 9 11 11 13 13 14 14 13 14 13 11
24 28 25 25 25 26 24 22 17 13 7 2 4 6 8 9 7 5 4 4 4 4 4 6 9 12 14 14 12 11 10 10 11 14 16 16 17 16 17 18 16 15 14
27 29 28 28 28 27 27 25 21 18 10 4 3 5 6 5 5 3 2 3 4 5 7 8 10 11 12 13 14 13 13 13 14 16 16 19 19 18 20 20 20 20 18
30 30 27 24 22 21 20 20 18 16 13 9 6 5 6 4 2 3 5 6 7 9 10 11 13 15 16 18 18 17 17 16 18 18 18 18 19 19 22 22 23 22 22
26 29 24 21 18 17 16 15 15 14 12 11 8 5 4 2 4 3 5 7 11 15 17 18 20 21 23 23 23 24 23 20 22 21 25 24 25 22 24 24 25 26 26
20 22 17 20 18 21 18 12 11 10 9 8 7 6 6 5 5 8 6 10 15 18 21 22 24 26 27 27 28 28 28 25 26 26 29 30 29 25 27 28 28 30 30
22 25 18 19 14 13 12 11 8 8 7 6 6 5 6 8 10 14 16 19 19 20 21 23 25 27 28 29 29 30 34 33 35 35 34 35 33 31 31 32 33 34 34
29 26 27 23 19 17 15 11 11 9 8 6 7 8 9 10 12 14 16 17 20 22 23 26 28 30 33 35 36 38 38 39 41 44 45 41 40 42 38 37 37 38 38
31 28 27 26 24 20 17 12 9 8 7 9 12 13 15 17 18 18 18 20 23 25 28 30 33 36 38 39 41 42 43 43 43 42 40 43 44 44 43 40 38 41 39
33 29 24 23 22 20 17 17 15 14 15 17 18 19 21 22 22 24 23 23 25 28 32 36 39 41 43 45 48 48 50 50 48 47 43 42 46 46 46 45 40 41 44
29 26 25 21 20 20 19 19 20 20 22 23 24 25 27 28 29 29 30 30 30 32 36 39 43 45 47 46 49 48 49 50 53 55 52 45 46 52 42 41 38 39 35
25 28 25 23 23 24 24 25 26 27 27 29 30 31 33 35 35 36 37 38 38 39 40 42 44 44 50 55 52 52 56 56 53 47 47 49 48 50 50 45 41 38 38
22 19 20 23 26 26 28 32 33 34 35 34 35 37 38 39 40 43 44 43 42 42 42 44 47 50 54 58 63 59 58 61 60 54 51 51 55 58 58 56 55 53 52
21 20 21 24 27 29 31 33 34 40 43 43 45 47 46 46 46 47 48 46 45 45 44 45 50 53 57 62 60 64 66 58 59 59 59 56 53 56 58 60 61 62 61
27 30 32 33 28 30 34 41 43 42 44 47 49 50 50 49 49 51 52 52 52 50 48 50 55 57 58 60 63 64 55 48 50 53 55 61 51 47 54 55 62 67 69
31 32 33 33 35 37 41 46 48 49 47 49 47 43 43 43 47 54 58 59 56 50 48 49 52 54 53 47 44 44 45 40 48 45 40 42 45 48 47 47 50 52 58
25 27 28 32 37 40 41 42 47 48 46 42 38 37 39 43 45 42 42 42 44 47 48 48 48 47 44 40 26 33 25 16 27 45 44 48 49 50 54 59 60 53 55
23 23 23 24 24 28 30 32 35 36 37 36 31 28 30 33 36 37 39 42 43 44 44 45 45 42 36 37 37 38 44 49 45 44 46 53 61 59 63 63 58 59 62
3 5 9 11 11 13 14 17 20 20 22 24 25 29 32 33 36 35 34 36 37 39 39 39 38 38 30 33 35 39 43 46 51 54 56 49 57 56 59 59 67 67 66
27 25 22 19 18 15 11 8 9 11 13 17 20 21 24 27 28 31 34 35 35 36 36 36 35 37 36 35 38 41 45 48 54 57 64 60 64 71 66 66 66 67 70
Wind_Direction_500mb
159 152 148 141 136 125 119 120 107 109 121 136 129 119 113 110 109 106 104 78 46 20 33 47 57 56 57 61 64 68 77 77 74 77 68 65 93 90 72 60 98 50 43
147 151 148 144 139 140 132 126 121 114 117 132 138 130 128 125 117 109 90 68 28 20 62 56 59 61 61 63 68 71 77 76 69 63 59 54 41 48 34 33 52 18 21
151 151 149 150 148 147 142 137 135 138 135 133 134 137 143 151 154 158 171 347 10 13 56 68 65 61 61 64 69 75 79 75 70 57 47 50 30 30 33 33 45 32 38
160 152 151 151 153 153 153 145 139 141 149 155 158 164 173 176 186 200 228 255 264 253 359 62 56 64 66 66 67 71 77 82 90 83 24 12 28 25 26 25 26 31 34
158 150 152 154 155 156 157 150 145 132 130 124 130 158 171 170 187 201 216 249 269 251 268 8 65 68 59 63 61 62 67 65 60 53 64 332 4 11 13 18 19 13 12
158 148 152 156 160 162 154 151 146 130 122 94 101 122 137 138 140 150 131 97 123 146 214 342 34 54 50 36 42 37 32 21 3 357 4 326 345 351 351 351 360 3 6
154 147 147 154 163 165 166 161 154 140 126 86 85 113 126 123 120 124 126 121 99 43 312 308 333 355 5 2 355 357 352 344 324 321 326 329 327 327 328 333 330 333 344
160 144 144 150 161 168 171 173 176 173 163 114 106 141 136 123 112 104 87 66 45 10 336 323 323 335 341 343 341 339 334 325 309 303 308 315 315 316 318 318 317 316 310
163 152 150 153 161 169 175 180 182 184 194 185 151 163 141 126 116 102 61 31 13 2 350 337 331 328 324 324 325 323 320 314 305 298 297 302 303 306 308 306 303 303 306
161 160 158 155 159 164 173 182 189 192 198 201 197 167 147 128 74 36 359 344 334 330 328 325 319 317 317 317 313 311 306 302 299 293 288 294 302 304 301 298 297 291 295
165 163 162 163 161 164 171 181 193 199 206 211 222 229 217 244 304 309 339 328 324 319 315 313 311 311 310 310 306 302 300 307 301 292 292 302 300 297 298 292 290 286 285
170 172 170 169 170 182 176 182 197 205 213 221 237 252 266 276 300 297 331 318 317 314 311 309 308 307 307 305 301 297 296 302 300 297 299 293 290 290 290 287 284 281 281
181 180 193 190 186 184 160 168 194 213 229 238 256 273 288 306 315 323 329 325 316 313 316 315 315 314 310 309 307 300 296 298 295 295 296 289 290 290 288 285 280 278 279
195 189 191 205 204 200 211 194 192 193 210 228 246 266 283 291 301 310 306 303 314 317 320 317 315 312 312 312 310 307 305 293 287 284 284 285 285 288 288 286 281 279 278
194 192 197 204 207 206 213 220 239 252 267 272 277 279 282 287 291 291 295 301 307 307 309 308 307 307 306 304 302 301 298 298 299 298 286 283 278 282 284 282 281 278 274
201 204 203 208 215 216 223 238 243 256 271 274 276 279 278 278 280 285 287 293 297 301 303 304 304 303 301 298 297 295 296 298 295 297 294 298 290 285 285 283 282 285 280
201 206 217 219 223 232 241 242 251 261 266 275 282 281 284 283 280 281 281 285 291 294 297 298 300 297 295 294 294 295 289 291 289 287 287 284 290 290 289 285 284 287 283
224 223 225 232 239 244 250 257 261 265 270 276 278 281 283 283 280 278 278 281 285 287 289 291 294 279 284 291 290 292 288 284 291 288 286 278 272 275 282 285 283 286 286
231 233 237 248 254 262 263 260 261 265 268 272 275 278 279 278 277 277 278 280 280 281 286 290 290 288 289 286 287 285 286 283 284 285 283 285 275 270 270 271 275 273 272
216 223 243 258 271 273 274 269 266 266 266 268 272 276 276 275 275 274 276 277 278 279 286 288 286 285 284 286 287 284 286 282 285 284 290 290 283 276 270 267 269 270 271
217 225 234 241 243 248 260 270 272 271 272 269 269 271 271 271 269 271 276 279 280 283 287 291 291 289 289 287 284 287 295 289 295 285 288 288 284 286 285 275 270 269 272
214 225 235 243 244 248 255 261 266 269 269 271 271 270 270 268 265 266 270 274 276 277 283 288 289 291 293 295 287 290 297 300 295 288 295 292 288 285 284 291 282 278 279
224 237 249 262 269 269 270 265 262 266 270 271 271 271 270 271 278 279 278 276 277 280 286 290 293 296 300 305 295 286 297 297 297 296 299 299 292 288 286 280 284 281 276
263 274 277 282 281 277 272 269 266 267 270 273 275 274 275 281 286 283 280 279 281 286 291 295 298 298 286 282 286 279 279 286 295 299 294 289 289 292 279 281 285 289 272
285 321 337 334 332 318 295 280 276 269 266 268 267 271 273 276 283 289 292 294 295 294 295 299 303 303 293 288 285 291 287 281 282 289 295 293 290 289 290 289 288 285 262
73 66 59 48 39 27 9 325 297 288 290 289 288 288 292 295 295 296 297 301 304 303 303 303 305 307 306 292 284 284 281 284 283 288 290 295 293 293 292 287 277 273 279
Wind_Speed_850mb
27 25 28 32 33 32 30 32 32 32 31 32 26 25 27 31 32 24 17 12 10 12 14 17 19 21 22 25 25 26 26 26 27 33 30 20 18 14 12 14 5 9 12
31 29 31 35 36 31 29 27 30 31 28 24 22 19 20 20 20 18 13 9 12 12 11 17 17 18 22 24 24 25 26 26 27 26 26 25 13 9 9 10 7 8 9
28 31 33 34 36 33 29 23 21 22 23 21 19 17 16 15 12 8 3 3 8 17 10 12 15 19 20 21 22 22 21 23 24 20 18 19 18 14 13 10 7 8 9
28 29 33 34 35 32 27 19 20 19 18 15 12 11 10 10 9 7 6 5 5 1 10 12 13 15 16 17 19 18 17 15 14 14 13 14 15 16 17 15 11 12 13
30 26 29 32 34 31 27 22 18 16 15 11 6 5 5 5 4 5 4 4 5 4 3 8 7 8 11 13 14 13 11 9 9 10 8 10 13 16 15 14 13 13 13
32 26 24 28 29 29 26 21 18 15 14 9 8 8 9 8 6 4 3 4 3 3 2 3 8 8 9 9 9 8 6 6 7 7 7 11 12 12 12 12 12 11 11
27 27 23 24 26 25 23 19 15 14 10 6 7 8 9 8 6 5 5 4 2 2 2 6 10 11 10 8 8 8 8 7 9 11 11 13 13 14 14 13 14 13 11
24 28 25 25 25 26 24 22 17 13 7 2 4 6 8 9 7 5 4 4 4 4 4 6 9 12 14 14 12 11 10 10 11 14 16 16 17 16 17 18 16 15 14
27 29 28 28 28 27 27 25 21 18 10 4 3 5 6 5 5 3 2 3 4 5 7 8 10 11 12 13 14 13 13 13 14 16 16 19 19 18 20 20 20 20 18
30 30 27 24 22 21 20 20 18 16 13 9 6 5 6 4 2 3 5 6 7 9 10 11 13 15 16 18 18 17 17 16 18 18 18 18 19 19 22 22 23 22 22
26 29 24 21 18 17 16 15 15 14 12 11 8 5 4 2 4 3 5 7 11 15 17 18 20 21 23 23 23 24 23 20 22 21 25 24 25 22 24 24 25 26 26
20 22 17 20 18 21 18 12 11 10 9 8 7 6 6 5 5 8 6 10 15 18 21 22 24 26 27 27 28 28 28 25 26 26 29 30 29 25 27 28 28 30 30
22 25 18 19 14 13 12 11 8 8 7 6 6 5 6 8 10 14 16 19 19 20 21 23 25 27 28 29 29 30 34 33 35 35 34 35 33 31 31 32 33 34 34
29 26 27 23 19 17 15 11 11 9 8 6 7 8 9 10 12 14 16 17 20 22 23 26 28 30 33 35 36 38 38 39 41 44 45 41 40 42 38 37 37 38 38
31 28 27 26 24 20 17 12 9 8 7 9 12 13 15 17 18 18 18 20 23 25 28 30 33 36 38 39 41 42 43 43 43 42 40 43 44 44 43 40 38 41 39
33 29 24 23 22 20 17 17 15 14 15 17 18 19 21 22 22 24 23 23 25 28 32 36 39 41 43 45 48 48 50 50 48 47 43 42 46 46 46 45 40 41 44
29 26 25 21 20 20 19 19 20 20 22 23 24 25 27 28 29 29 30 30 30 32 36 39 43 45 47 46 49 48 49 50 53 55 52 45 46 52 42 41 38 39 35
25 28 25 23 23 24 24 25 26 27 27 29 30 31 33 35 35 36 37 38 38 39 40 42 44 44 50 55 52 52 56 56 53 47 47 49 48 50 50 45 41 38 38
22 19 20 23 26 26 28 32 33 34 35 34 35 37 38 39 40 43 44 43 42 42 42 44 47 50 54 58 63 59 58 61 60 54 51 51 55 58 58 56 55 53 52
21 20 21 24 27 29 31 33 34 40 43 43 45 47 46 46 46 47 48 46 45 45 44 45 50 53 57 62 60 64 66 58 59 59 59 56 53 56 58 60 61 62 61
27 30 32 33 28 30 34 41 43 42 44 47 49 50 50 49 49 51 52 52 52 50 48 50 55 57 58 60 63 64 55 48 50 53 55 61 51 47 54 55 62 67 69
31 32 33 33 35 37 41 46 48 49 47 49 47 43 43 43 47 54 58 59 56 50 48 49 52 54 53 47 44 44 45 40 48 45 40 42 45 48 47 47 50 52 58
25 27 28 32 37 40 41 42 47 48 46 42 38 37 39 43 45 42 42 42 44 47 48 48 48 47 44 40 26 33 25 16 27 45 44 48 49 50 54 59 60 53 55
23 23 23 24 24 28 30 32 35 36 37 36 31 28 30 33 36 37 39 42 43 44 44 45 45 42 36 37 37 38 44 49 45 44 46 53 61 59 63 63 58 59 62
3 5 9 11 11 13 14 17 20 20 22 24 25 29 32 33 36 35 34 36 37 39 39 39 38 38 30 33 35 39 43 46 51 54 56 49 57 56 59 59 67 67 66
27 25 22 19 18 15 11 8 9 11 13 17 20 21 24 27 28 31 34 35 35 36 36 36 35 37 36 35 38 41 45 48 54 57 64 60 64 71 66 66 66 67 70
Wind_Direction_850mb
159 152 148 141 136 125 119 120 107 109 121 136 129 119 113 110 109 106 104 78 46 20 33 47 57 56 57 61 64 68 77 77 74 77 68 65 93 90 72 60 98 50 43
147 151 148 144 139 140 132 126 121 114 117 132 138 130 128 125 117 109 90 68 28 20 62 56 59 61 61 63 68 71 77 76 69 63 59 54 41 48 34 33 52 18 21
151 151 149 150 148 147 142 137 135 138 135 133 134 137 143 151 154 158 171 347 10 13 56 68 65 61 61 64 69 75 79 75 70 57 47 50 30 30 33 33 45 32 38
160 152 151 151 153 153 153 145 139 141 149 155 158 164 173 176 186 200 228 255 264 253 359 62 56 64 66 66 67 71 77 82 90 83 24 12 28 25 26 25 26 31 34
158 150 152 154 155 156 157 150 145 132 130 124 130 158 171 170 187 201 216 249 269 251 268 8 65 68 59 63 61 62 67 65 60 53 64 332 4 11 13 18 19 13 12
158 148 152 156 160 162 154 151 146 130 122 94 101 122 137 138 140 150 131 97 123 146 214 342 34 54 50 36 42 37 32 21 3 357 4 326 345 351 351 351 360 3 6
154 147 147 154 163 165 166 161 154 140 126 86 85 113 126 123 120 124 126 121 99 43 312 308 333 355 5 2 355 357 352 344 324 321 326 329 327 327 328 333 330 333 344
160 144 144 150 161 168 171 173 176 173 163 114 106 141 136 123 112 104 87 66 45 10 336 323 323 335 341 343 341 339 334 325 309 303 308 315 315 316 318 318 317 316 310
163 152 150 153 161 169 175 180 182 184 194 185 151 163 141 126 116 102 61 31 13 2 350 337 331 328 324 324 325 323 320 314 305 298 297 302 303 306 308 306 303 303 306
161 160 158 155 159 164 173 182 189 192 198 201 197 167 147 128 74 36 359 344 334 330 328 325 319 317 317 317 313 311 306 302 299 293 288 294 302 304 301 298 297 291 295
165 163 162 163 161 164 171 181 193 199 206 211 222 229 217 244 304 309 339 328 324 319 315 313 311 311 310 310 306 302 300 307 301 292 292 302 300 297 298 292 290 286 285
170 172 170 169 170 182 176 182 197 205 213 221 237 252 266 276 300 297 331 318 317 314 311 309 308 307 307 305 301 297 296 302 300 297 299 293 290 290 290 287 284 281 281
181 180 193 190 186 184 160 168 194 213 229 238 256 273 288 306 315 323 329 325 316 313 316 315 315 314 310 309 307 300 296 298 295 295 296 289 290 290 288 285 280 278 279
195 189 191 205 204 200 211 194 192 193 210 228 246 266 283 291 301 310 306 303 314 317 320 317 315 312 312 312 310 307 305 293 287 284 284 285 285 288 288 286 281 279 278
194 192 197 204 207 206 213 220 239 252 267 272 277 279 282 287 291 291 295 301 307 307 309 308 307 307 306 304 302 301 298 298 299 298 286 283 278 282 284 282 281 278 274
201 204 203 208 215 216 223 238 243 256 271 274 276 279 278 278 280 285 287 293 297 301 303 304 304 303 301 298 297 295 296 298 295 297 294 298 290 285 285 283 282 285 280
201 206 217 219 223 232 241 242 251 261 266 275 282 281 284 283 280 281 281 285 291 294 297 298 300 297 295 294 294 295 289 291 289 287 287 284 290 290 289 285 284 287 283
224 223 225 232 239 244 250 257 261 265 270 276 278 281 283 283 280 278 278 281 285 287 289 291 294 279 284 291 290 292 288 284 291 288 286 278 272 275 282 285 283 286 286
231 233 237 248 254 262 263 260 261 265 268 272 275 278 279 278 277 277 278 280 280 281 286 290 290 288 289 286 287 285 286 283 284 285 283 285 275 270 270 271 275 273 272
216 223 243 258 271 273 274 269 266 266 266 268 272 276 276 275 275 274 276 277 278 279 286 288 286 285 284 286 287 284 286 282 285 284 290 290 283 276 270 267 269 270 271
217 225 234 241 243 248 260 270 272 271 272 269 269 271 271 271 269 271 276 279 280 283 287 291 291 289 289 287 284 287 295 289 295 285 288 288 284 286 285 275 270 269 272
214 225 235 243 244 248 255 261 266 269 269 271 271 270 270 268 265 266 270 274 276 277 283 288 289 291 293 295 287 290 297 300 295 288 295 292 288 285 284 291 282 278 279
224 237 249 262 269 269 270 265 262 266 270 271 271 271 270 271 278 279 278 276 277 280 286 290 293 296 300 305 295 286 297 297 297 296 299 299 292 288 286 280 284 281 276
263 274 277 282 281 277 272 269 266 267 270 273 275 274 275 281 286 283 280 279 281 286 291 295 298 298 286 282 286 279 279 286 295 299 294 289 289 292 279 281 285 289 272
285 321 337 334 332 318 295 280 276 269 266 268 267 271 273 276 283 289 292 294 295 294 295 299 303 303 293 288 285 291 287 281 282 289 295 293 290 289 290 289 288 285 262
73 66 59 48 39 27 9 325 297 288 290 289 288 288 292 295 295 296 297 301 304 303 303 303 305 307 306 292 284 284 281 284 283 288 290 295 293 293 292 287 277 273 279